This is the latest recevied weather packets stored in our database for station/object KR8N. If no packets are shown the sender has not sent any weather packets the latest 10 day(s).
| Time | Temp. | Humidity | Pressure | Rain* | Wind** | Luminosity | Snow |
|---|---|---|---|---|---|---|---|
| 1778032995 | 18.33° C | 46% | 1013.7 hPa | 0 mm | - | 0 W/m² | - |
| 1778032693 | 18.33° C | 46% | 1013.7 hPa | 0 mm | - | 0 W/m² | - |
| 1778032390 | 18.33° C | 46% | 1013.5 hPa | 0 mm | - | 0 W/m² | - |
| 1778032086 | 18.33° C | 46% | 1013.8 hPa | 0 mm | - | 0 W/m² | - |
| 1778031783 | 18.33° C | 46% | 1013.8 hPa | 0 mm | - | 0 W/m² | - |
| 1778031480 | 18.33° C | 46% | 1013.9 hPa | 0 mm | - | 0 W/m² | - |
| 1778031177 | 18.33° C | 46% | 1013.7 hPa | 0 mm | - | 0 W/m² | - |
| 1778030874 | 18.33° C | 46% | 1013.8 hPa | 0 mm | - | 0 W/m² | - |
| 1778030571 | 18.33° C | 46% | 1013.7 hPa | 0 mm | - | 0 W/m² | - |
| 1778030268 | 18.33° C | 45% | 1013.7 hPa | 0 mm | - | 0 W/m² | - |
| 1778029964 | 18.89° C | 46% | 1013.6 hPa | 0 mm | - | 0 W/m² | - |
| 1778029663 | 18.89° C | 42% | 1013.8 hPa | 0 mm | - | 0 W/m² | - |
| 1778029360 | 18.89° C | 42% | 1013.8 hPa | 0 mm | - | 0 W/m² | - |
| 1778029057 | 19.44° C | 42% | 1013.8 hPa | 0 mm | - | 0 W/m² | - |
| 1778028753 | 19.44° C | 41% | 1013.7 hPa | 0 mm | - | 0 W/m² | - |
| 1778028449 | 18.89° C | 42% | 1013.9 hPa | 0 mm | - | 0 W/m² | - |
| 1778028147 | 18.89° C | 44% | 1013.8 hPa | 0 mm | - | 0 W/m² | - |
| 1778027843 | 19.44° C | 41% | 1014.1 hPa | 0 mm | - | 0 W/m² | - |
| 1778027540 | 18.89° C | 41% | 1014 hPa | 0 mm | - | 0 W/m² | - |
| 1778027235 | 18.89° C | 40% | 1014.1 hPa | 0 mm | - | 0 W/m² | - |
| 1778026932 | 19.44° C | 42% | 1014.2 hPa | 0 mm | - | 0 W/m² | - |
| 1778026628 | 19.44° C | 39% | 1014.1 hPa | 0 mm | - | 1 W/m² | - |
| 1778026325 | 20° C | 41% | 1013.9 hPa | 0 mm | - | 1 W/m² | - |
| 1778026022 | 20° C | 37% | 1013.9 hPa | 0 mm | - | 2 W/m² | - |
| 1778025720 | 20° C | 39% | 1014.2 hPa | 0 mm | - | 2 W/m² | - |
* Rain latest hour (hover to see other rain measurements)
** Current wind speed in m/s (hover to see current wind gust speed)